This demonstration page uses our WeatherBlox Daily Observations layout. Learn more.

Left ArrowRight Arrow

36.17497, -115.13722

Hourly Observations for December 30, 2019

Temp ( °F °C ) Dew Point ( °F °C ) Humidity (%) Winds ( mph kmh ) Pressure ( in mb ) Visibility ( mi km ) Precip ( " mm )
12:58 am 00:58 Cloudy 37 2.5 26 -3.4 65 65 NNE 8 13 30.14 1021 10 16 0.00 0.00
1:58 am 01:58 Cloudy 38 3.2 25 -4 60 60 Calm 30.16 1021 10 16 0.00 0.00
2:58 am 02:58 Cloudy 37 2.8 30 -1 76 76 Calm 30.16 1021 10 16 0.00 0.00
3:58 am 03:58 Cloudy 37 2.9 31 -0.7 77 77 Calm 30.14 1021 10 16 0.00 0.00
4:58 am 04:58 Cloudy 37 3 29 -1.6 72 72 Calm 30.16 1021 10 16 0.00 0.00
5:58 am 05:58 Mostly Cloudy 35 1.5 30 -0.9 84 84 Calm 30.16 1021 10 16 0.00 0.00
6:58 am 06:58 Cloudy 35 1.4 32 0.1 91 91 Calm 30.18 1022 10 16 0.00 0.00
7:58 am 07:58 Mostly Cloudy 35 1.7 34 1.3 97 97 Calm 30.20 1023 10 16 0.00 0.00
8:58 am 08:58 Mostly Sunny 40 4.2 30 -1 69 69 Calm 30.21 1023 10 16 0.00 0.00
9:58 am 09:58 Sunny 44 6.5 30 -1.2 58 58 Calm 30.21 1023 10 16 0.00 0.00
10:58 am 10:58 Sunny 47 8.6 27 -2.7 45 45 S 3 6 30.17 1022 10 16 0.00 0.00
11:58 am 11:58 Sunny 51 10.5 26 -3.2 38 38 N 12 19 30.13 1020 10 16 0.00 0.00
12:58 pm 12:58 Sunny 52 11.2 26 -3.3 36 36 N 10 17 30.10 1019 10 16 0.00 0.00
1:58 pm 13:58 Sunny 54 12 27 -2.6 36 36 NNE 10 17 30.08 1019 10 16 0.00 0.00
2:58 pm 14:58 Sunny 54 12.1 28 -2.5 36 36 N 9 15 30.08 1019 10 16 0.00 0.00
3:58 pm 15:58 Sunny 53 11.7 28 -2.2 38 38 NNE 10 17 30.08 1019 10 16 0.00 0.00
4:58 pm 16:58 Clear 49 9.5 30 -1.3 47 47 NNE 9 15 30.09 1019 10 16 0.00 0.00
5:58 pm 17:58 Clear 46 8 30 -1 53 53 NNE 8 13 30.11 1020 10 16 0.00 0.00
6:58 pm 18:58 Clear 44 6.5 31 -0.3 62 62 NE 6 9 30.11 1020 10 16 0.00 0.00
7:58 pm 19:58 Clear 46 7.6 29 -1.6 52 52 NE 5 7 30.12 1020 10 16 0.00 0.00
8:58 pm 20:58 Clear 45 7.1 30 -1.3 56 56 NE 5 7 30.13 1020 10 16 0.00 0.00
9:58 pm 21:58 Clear 47 8.5 30 -1.1 51 51 NE 8 13 30.13 1020 10 16 0.00 0.00
10:20 pm 22:20 Clear 48 9 30 -1 50 50 N 13 20 30.13 1020 10 16 0.00 0.00
10:58 pm 22:58 Clear 47 8.5 30 -1.1 51 51 N 7 11 30.14 1021 10 16 0.00 0.00
11:58 pm 23:58 Clear 48 8.7 30 -1.1 51 51 N 10 17 30.14 1021 10 16 0.00 0.00

Powered by AerisWeather